[[{"header":{"parameterUnit":"m.s-1","parameterCategory":1,"la1":30.2991,"la2":30.254,"lo1":-89.0895,"lo2":-89.0444,"dy":0.0017,"dx":0.0017,"nx":28,"ny":28,"refTime":"2025-08-25T21:00:00:Z","depth":0,"parameterNumber":2,"parameterNumberName":"U-component_of_WINDS"},"data":[0,0,0,0,0,0,0,0,0,0,0,0,0,0,0,0,0,0,0,0,0,0,0,0,0,0,0,0,0,0,0,0,0,0,0,0,0,0,0,0,0,0,0,0,0,0,0,0,0,0,0,0,0,0,0,0,0,0,-3.0271,-3.027,0,-3.0216,-3.0215,-3.0214,-3.0077,-3.0074,-3.0071,-3.0068,-3.0016,-3.0017,-3.0018,0,0,0,0,0,0,0,0,0,0,0,0,0,-3.0262,-3.0263,-3.0271,-3.027,-3.0269,-3.0216,-3.0215,-3.0214,-3.0077,-3.0074,-3.007,-3.0067,-3.0015,-3.0017,-3.0019,0,0,0,0,0,0,0,0,0,0,0,0,0,-3.0243,-3.0263,-3.0271,-3.0194,-3.0187,-3.0216,-3.0215,-3.0214,-3.0078,-3.0074,-3.0069,-3.0065,-3.0015,-3.0017,-3.0019,-3.0119,0,0,-3.0025,-3.0026,0,0,0,0,0,0,0,0,-3.0244,-3.0243,-3.0206,-3.02,-3.0192,-3.0148,-3.0193,-3.0182,-3.0079,-3.012,-3.0068,-3.0063,-3.0064,-3.0061,-3.0061,-3.0116,-3.0114,-3.0025,-3.0026,-3.0027,-3.0028,0,0,0,0,0,0,0,-3.0245,-3.0245,-3.0249,-3.0206,-3.0197,-3.0164,-3.0157,-3.019,-3.0117,-3.0116,-3.0105,-3.0101,-3.0059,-3.0059,-3.0059,-3.0113,-3.0025,-3.0027,-3.0028,-3.0029,-3.025,-3.0255,0,0,0,0,0,0,-3.0257,-3.0247,-3.0251,-3.0247,-3.0207,-3.0168,-3.016,-3.0167,-3.0116,-3.0104,-3.0104,-3.0094,-3.0058,-3.0056,-3.0056,-3.0171,-3.0027,-3.0029,-3.003,-3.0246,-3.0251,-3.0256,0,0,0,0,0,0,-3.0257,-3.0259,-3.0253,-3.0244,-3.0241,-3.0173,-3.0182,-3.0168,-3.0168,-3.0108,-3.0094,-3.0118,-3.0054,-3.0053,-3.0104,-3.0168,-3.003,-3.0032,-3.024,-3.0247,-3.0254,-3.0402,0,0,0,0,0,0,-3.0258,-3.026,-3.0296,-3.0246,-3.0242,-3.0301,-3.0186,-3.017,-3.0171,-3.0158,-3.0117,-3.0106,-3.0051,-3.0102,-3.0106,-3.0168,-3.0033,-3.0234,-3.0243,-3.0252,-3.0391,-3.0413,-3.0432,0,0,0,0,0,-3.0258,-3.034,-3.0298,-3.03,-3.0285,-3.0305,-3.0303,-3.0237,-3.0177,-3.0214,-3.0175,-3.0107,-3.016,-3.0109,-3.0112,-3.0175,-3.023,-3.0241,-3.0251,-3.0382,-3.0409,-3.0432,0,0,0,0,0,0,-3.04,-3.0332,-3.0285,-3.0353,-3.0336,-3.0282,-3.0325,-3.0267,-3.0267,-3.0255,-3.0174,-3.0166,-3.0229,-3.0206,-3.0151,-3.0271,-3.0184,-3.0196,-3.0283,-3.0308,-3.0328,-3.0332,-3.0035,0,0,0,0,0,-3.0439,-3.0459,-3.0399,-3.0465,-3.0459,-3.0394,-3.04,-3.0351,-3.033,-3.0323,-3.0287,-3.0271,-3.0284,-3.0294,-3.0303,-3.0387,-3.0378,-3.0433,-3.0453,-3.047,-3.0482,-3.0527,-3.0552,-3.0291,-3.0291,-3.0291,0,0,-3.052,-3.0486,-3.0503,-3.0493,-3.0474,-3.0498,-3.0389,-3.0419,-3.0437,-3.0327,-3.0373,-3.0348,-3.0324,-3.0393,-3.0422,-3.0377,-3.0552,-3.0484,-3.0498,-3.05,-3.0541,-3.0566,-3.0588,-3.0298,-3.0297,-3.0296,0,0,-3.0681,-3.0656,-3.0709,-3.0692,-3.0664,-3.0621,-3.0634,-3.0589,-3.0567,-3.0612,-3.0531,-3.0552,-3.0575,-3.0563,-3.056,-3.0718,-3.0656,-3.0723,-3.083,-3.0876,-3.0896,-3.0914,-3.0973,-3.0994,-3.0734,-3.0735,-3.0735,0,-3.0786,-3.0818,-3.0744,-3.078,-3.0779,-3.068,-3.0734,-3.0722,-3.0699,-3.0702,-3.0651,-3.068,-3.0657,-3.0723,-3.0761,-3.0761,-3.0776,-3.0728,-3.0899,-3.0916,-3.0932,-3.0987,-3.1009,-3.0743,-3.0742,-3.0741,-3.0741,0,-3.0949,-3.0973,-3.102,-3.0999,-3.1003,-3.1048,-3.0983,-3.0997,-3.0948,-3.0911,-3.0959,-3.0928,-3.093,-3.0941,-3.0894,-3.1001,-3.0975,-3.0913,-3.0825,-3.0966,-3.1017,-3.1037,-3.0755,-3.0752,-3.075,-3.0748,0,0,-3.1197,-3.1136,-3.1155,-3.1145,-3.1108,-3.1126,-3.1168,-3.1168,-3.1182,-3.117,-3.1205,-3.1228,-3.1171,-3.1167,-3.1118,-3.1157,-3.1287,-3.1091,-3.1089,-3.113,-3.1407,-3.1455,-3.148,-3.1246,-3.125,-3.1252,-3.1409,0,-3.135,-3.1416,-3.1352,-3.1432,-3.1455,-3.1362,-3.1399,-3.1381,-3.1348,-3.1364,-3.1327,-3.1345,-3.1268,-3.1266,-3.13,-3.1264,-3.1342,-3.1252,-3.1279,-3.1281,-3.129,-3.1506,-3.1556,-3.1705,-3.1428,-3.1431,-3.1434,0,-3.1536,-3.1533,-3.1615,-3.1574,-3.1581,-3.1615,-3.1612,-3.1627,-3.1606,-3.1579,-3.1577,-3.1516,-3.1556,-3.147,-3.1525,-3.1466,-3.1473,-3.1457,-3.1462,-3.1463,-3.1367,-3.1515,-3.1751,-3.1774,-3.1464,-3.1461,-3.1459,0,-3.1712,-3.1727,-3.1779,-3.1773,-3.1727,-3.1753,-3.1735,-3.1709,-3.1715,-3.1712,-3.1715,-3.1718,-3.172,-3.1725,-3.1668,-3.1609,-3.1732,-3.1639,-3.1713,-3.1715,-3.1743,-3.1743,-3.1986,-3.1746,-3.1746,-3.1745,-3.1745,0,-3.1889,-3.1944,-3.1857,-3.1889,-3.1948,-3.1875,-3.1936,-3.1909,-3.1887,-3.1914,-3.1834,-3.1861,-3.1783,-3.1803,-3.1759,-3.1813,-3.1814,-3.1795,-3.1783,-3.1804,-3.1806,-3.1808,-3.1797,-3.1751,-3.175,-3.1749,-3.1748,0,-3.2095,-3.2039,-3.209,-3.2041,-3.2031,-3.2077,-3.2036,-3.2065,-3.2027,-3.2062,-3.2066,-3.2007,-3.2026,-3.1969,-3.198,-3.195,-3.203,-3.2,-3.2037,-3.2028,-3.2106,-3.21,-3.236,-3.2392,-3.2131,-3.2133,-3.2135,0,-3.2213,-3.2253,-3.2209,-3.2221,-3.2207,-3.2227,-3.2232,-3.2162,-3.2171,-3.2151,-3.2183,-3.2195,-3.2201,-3.2237,-3.2196,-3.2204,-3.2175,-3.2266,-3.2176,-3.2196,-3.2179,-3.2178,-3.2183,-3.2285,-3.2288,-3.2291,-3.2293,0,-3.2429,-3.24,-3.2409,-3.241,-3.2418,-3.2415,-3.2407,-3.2422,-3.2347,-3.2362,-3.238,-3.2385,-3.2396,-3.241,-3.2409,-3.2392,-3.2332,-3.2322,-3.2339,-3.2361,-3.2382,-3.2374,-3.209,-3.2316,-3.2314,-3.2312,-3.2311,-3.231,-3.2595,-3.2627,-3.2602,-3.2616,-3.2603,-3.2598,-3.2623,-3.2588,-3.2602,-3.2604,-3.2563,-3.2591,-3.2571,-3.2564,-3.2553,-3.2575,-3.2534,-3.2559,-3.2566,-3.2574,-3.2588,-3.2377,-3.2575,-3.2574,-3.2573,-3.2573,-3.2572,0,-3.2809,-3.2788,-3.2802,-3.2793,-3.2805,-3.2745,-3.2734,-3.2748,-3.2773,-3.2759,-3.2767,-3.279,-3.2804,-3.2765,-3.2773,-3.2799,-3.2771,-3.2803,-3.2802,-3.2799,-3.2623,-3.2608,-3.2826,-3.2826,-3.2826,-3.2826,-3.2825,-3.2825,-3.2921,-3.2973,-3.2941,-3.2986,-3.2965,-3.2991,-3.299,-3.2986,-3.2974,-3.3003,-3.3014,-3.2987,-3.2964,-3.2971,-3.2982,-3.297,-3.2978,-3.3021,-3.3,-3.2836,-3.2811,-3.2788,-3.2773,-3.3022,-3.3023,-3.3174,-3.3176,-3.3177]},{"header":{"parameterUnit":"m.s-1","parameterCategory":1,"la1":30.2991,"la2":30.254,"lo1":-89.0895,"lo2":-89.0444,"dy":0.0017,"dx":0.0017,"nx":28,"ny":28,"refTime":"2025-08-25T21:00:00:Z","depth":0,"parameterNumber":3,"parameterNumberName":"V-component_of_WINDS"},"data":[0,0,0,0,0,0,0,0,0,0,0,0,0,0,0,0,0,0,0,0,0,0,0,0,0,0,0,0,0,0,0,0,0,0,0,0,0,0,0,0,0,0,0,0,0,0,0,0,0,0,0,0,0,0,0,0,0,0,0.69,0.69,0,0.694,0.6941,0.6941,0.6971,0.6972,0.6972,0.6972,0.7011,0.7011,0.7012,0,0,0,0,0,0,0,0,0,0,0,0,0,0.6845,0.6846,0.69,0.69,0.6901,0.694,0.6941,0.6941,0.6971,0.6972,0.6972,0.6972,0.701,0.7011,0.7012,0,0,0,0,0,0,0,0,0,0,0,0,0,0.6875,0.6846,0.6899,0.692,0.6923,0.694,0.6941,0.6941,0.6971,0.6972,0.6972,0.6972,0.701,0.7011,0.7012,0.7011,0,0,0.7016,0.7016,0,0,0,0,0,0,0,0,0.6874,0.6877,0.6917,0.6919,0.6922,0.6951,0.6936,0.6965,0.6971,0.6953,0.6972,0.6973,0.699,0.6993,0.7,0.7013,0.7014,0.7016,0.7017,0.7017,0.7017,0,0,0,0,0,0,0,0.6872,0.6876,0.6916,0.6917,0.692,0.6927,0.6932,0.6941,0.6969,0.6954,0.6957,0.6961,0.6992,0.6998,0.7001,0.7015,0.7016,0.7017,0.7018,0.7018,0.7028,0.7028,0,0,0,0,0,0,0.6867,0.6874,0.6914,0.6917,0.6898,0.6928,0.6933,0.6941,0.6969,0.6973,0.6961,0.6963,0.6996,0.6999,0.7002,0.7002,0.7017,0.7018,0.7019,0.7029,0.7028,0.7028,0,0,0,0,0,0,0.6865,0.687,0.6913,0.6896,0.6902,0.6928,0.6937,0.6942,0.6949,0.6974,0.6978,0.6963,0.6997,0.7001,0.7009,0.7004,0.7019,0.702,0.7029,0.7029,0.7028,0.7001,0,0,0,0,0,0,0.6864,0.6869,0.687,0.6896,0.6903,0.6919,0.6937,0.6942,0.6951,0.6954,0.6977,0.6981,0.6997,0.7007,0.701,0.7005,0.7021,0.703,0.7029,0.7028,0.7003,0.7,0.6997,0,0,0,0,0,0.6862,0.686,0.687,0.6874,0.6904,0.6919,0.6923,0.6942,0.6951,0.6951,0.6967,0.698,0.7004,0.7007,0.7011,0.7007,0.703,0.7029,0.7028,0.7004,0.7,0.6998,0,0,0,0,0,0,0.6832,0.6864,0.6875,0.6882,0.6898,0.6924,0.6925,0.6938,0.6951,0.6953,0.6976,0.6981,0.6986,0.6998,0.7001,0.7007,0.7019,0.7018,0.6999,0.6996,0.6993,0.699,0.7022,0,0,0,0,0,0.6826,0.6836,0.6864,0.6867,0.6875,0.6898,0.6905,0.692,0.6936,0.6943,0.6959,0.6974,0.6985,0.6991,0.7002,0.7005,0.701,0.7004,0.7001,0.6999,0.6998,0.6999,0.6997,0.7025,0.7025,0.7025,0,0,0.6814,0.6833,0.6838,0.6862,0.6875,0.6884,0.6903,0.6912,0.6919,0.6944,0.6952,0.6965,0.6983,0.6988,0.6991,0.6997,0.6992,0.6998,0.6996,0.6996,0.6998,0.6996,0.6993,0.7024,0.7024,0.7024,0,0,0.6797,0.6813,0.6817,0.6831,0.6852,0.6868,0.6869,0.6893,0.6903,0.6912,0.6931,0.6938,0.6957,0.6969,0.6977,0.6965,0.6977,0.6968,0.6953,0.6954,0.6952,0.695,0.6945,0.6942,0.6967,0.6967,0.6967,0,0.6779,0.6794,0.6817,0.6825,0.6835,0.6859,0.6863,0.6874,0.6897,0.6903,0.691,0.6934,0.6948,0.6955,0.6952,0.6959,0.696,0.6964,0.6951,0.6949,0.6948,0.6943,0.6941,0.6966,0.6966,0.6966,0.6966,0,0.6771,0.6781,0.6782,0.6805,0.6815,0.682,0.6843,0.685,0.6863,0.6878,0.6887,0.6905,0.692,0.6923,0.6936,0.6932,0.6936,0.6947,0.6959,0.6943,0.6939,0.6937,0.6964,0.6964,0.6964,0.6965,0,0,0.6735,0.6771,0.6771,0.6781,0.6806,0.6814,0.6821,0.6836,0.6841,0.6857,0.6862,0.6877,0.6888,0.6897,0.6911,0.6913,0.69,0.6923,0.6924,0.6917,0.6897,0.6887,0.6884,0.691,0.6909,0.6909,0.6895,0,0.672,0.6735,0.6756,0.6762,0.6771,0.6795,0.68,0.6816,0.683,0.6839,0.6854,0.6864,0.6878,0.6884,0.6886,0.6901,0.6896,0.6903,0.6913,0.6913,0.6907,0.6882,0.6872,0.6858,0.6893,0.6893,0.6893,0,0.6705,0.672,0.6728,0.6752,0.6757,0.6762,0.6777,0.6787,0.6804,0.6814,0.6825,0.6841,0.6848,0.686,0.687,0.6874,0.688,0.6888,0.6888,0.6888,0.6901,0.6881,0.6854,0.6851,0.689,0.6891,0.6891,0,0.6677,0.6699,0.6706,0.6714,0.6743,0.6746,0.6758,0.6776,0.6784,0.6798,0.6803,0.6817,0.6824,0.6835,0.6853,0.6861,0.686,0.6874,0.6868,0.6867,0.6865,0.6865,0.6837,0.6871,0.6871,0.6871,0.6872,0,0.6658,0.6661,0.6693,0.6698,0.6702,0.6726,0.6729,0.6743,0.6759,0.6766,0.6787,0.6793,0.6818,0.6827,0.6842,0.6847,0.685,0.6857,0.6861,0.6855,0.6853,0.6857,0.6858,0.6871,0.6871,0.6871,0.6871,0,0.6625,0.6648,0.6657,0.6684,0.6691,0.6692,0.6715,0.6719,0.6735,0.6743,0.6747,0.6771,0.6782,0.6802,0.6819,0.6829,0.683,0.6837,0.6824,0.6826,0.6818,0.6818,0.679,0.6787,0.6825,0.6824,0.6824,0,0.6611,0.6614,0.6642,0.6648,0.666,0.667,0.6678,0.6702,0.671,0.6731,0.6732,0.6745,0.6757,0.6773,0.6791,0.6804,0.6811,0.68,0.6812,0.6806,0.6809,0.6808,0.6807,0.6797,0.6796,0.6796,0.6796,0,0.6583,0.6594,0.6606,0.6621,0.6631,0.6645,0.6659,0.6663,0.669,0.6697,0.6709,0.6718,0.6735,0.6747,0.6763,0.6774,0.6788,0.6792,0.6791,0.6783,0.6775,0.6778,0.6815,0.6792,0.6792,0.6793,0.6793,0.6793,0.6558,0.6562,0.6582,0.6594,0.6608,0.6621,0.6626,0.6643,0.6654,0.667,0.6684,0.6694,0.6712,0.6734,0.6744,0.6752,0.6759,0.6758,0.6757,0.6756,0.6753,0.6775,0.6755,0.6756,0.6756,0.6756,0.6756,0,0.6529,0.6544,0.6555,0.6575,0.6584,0.6599,0.6616,0.6623,0.6632,0.6648,0.6659,0.6672,0.6684,0.6704,0.6717,0.6719,0.6726,0.6722,0.6721,0.6723,0.6747,0.6746,0.6716,0.6716,0.6716,0.6716,0.6716,0.6716,0.6516,0.6522,0.6536,0.6549,0.6563,0.6574,0.6583,0.6594,0.6607,0.6621,0.6631,0.6645,0.6662,0.6676,0.6688,0.6693,0.6696,0.6689,0.6697,0.6718,0.6722,0.6725,0.6724,0.669,0.669,0.6672,0.6672,0.6672]}]]